Time,TemperatureF,DewpointF,PressureIn,WindDirection,WindDirectionDegrees,WindSpeedMPH,WindSpeedGustMPH,Humidity,HourlyPrecipIn,Conditions,Clouds,dailyrainin,SolarRadiationWatts/m^2,SoftwareType,DateUTC
2013-06-26 00:02:00,60.8,60.3,-100.00,WNW,287,0.0,0.0,98,0.01,,,0.66,0.0,meteohub,2013-06-26 07:02:00,
2013-06-26 00:07:00,61.0,60.4,-100.00,WNW,287,0.0,0.0,98,0.01,,,0.66,0.0,meteohub,2013-06-26 07:07:00,
2013-06-26 00:12:00,60.8,60.3,-100.00,WNW,287,0.0,0.0,98,0.01,,,0.01,0.0,meteohub,2013-06-26 07:12:00,
2013-06-26 00:17:00,60.8,60.3,-100.00,WNW,287,0.0,0.0,98,0.02,,,0.01,0.0,meteohub,2013-06-26 07:17:00,
2013-06-26 00:22:00,60.6,60.1,-100.00,WNW,287,0.0,0.0,98,0.02,,,0.01,0.0,meteohub,2013-06-26 07:22:00,
2013-06-26 00:27:00,60.6,60.1,-100.00,WNW,287,0.0,0.0,98,0.02,,,0.01,0.0,meteohub,2013-06-26 07:27:00,
2013-06-26 00:32:00,60.6,60.1,-100.00,WNW,287,0.0,0.0,98,0.02,,,0.01,0.0,meteohub,2013-06-26 07:32:00,
2013-06-26 00:37:00,60.6,60.1,-100.00,WNW,287,0.0,0.0,98,0.01,,,0.01,0.0,meteohub,2013-06-26 07:37:00,
2013-06-26 00:42:00,60.6,60.1,-100.00,WNW,287,0.0,0.0,98,0.01,,,0.01,0.0,meteohub,2013-06-26 07:42:00,
2013-06-26 00:47:00,60.6,60.1,-100.00,WNW,287,0.0,0.0,98,0.01,,,0.01,0.0,meteohub,2013-06-26 07:47:00,
2013-06-26 00:53:00,60.6,60.1,-100.00,WNW,287,0.0,0.0,98,0.02,,,0.02,0.0,meteohub,2013-06-26 07:53:00,
2013-06-26 00:59:00,60.4,59.9,-100.00,WNW,287,0.0,0.0,98,0.02,,,0.02,0.0,meteohub,2013-06-26 07:59:00,
2013-06-26 01:05:00,60.6,60.1,-100.00,WNW,287,0.0,0.0,98,0.02,,,0.02,0.0,meteohub,2013-06-26 08:05:00,
2013-06-26 01:12:00,60.6,60.1,-100.00,WNW,287,0.0,0.0,98,0.02,,,0.02,0.0,meteohub,2013-06-26 08:12:00,
2013-06-26 01:18:00,60.6,60.1,-100.00,WNW,287,0.0,0.0,98,0.01,,,0.02,0.0,meteohub,2013-06-26 08:18:00,
2013-06-26 01:24:00,60.6,60.1,-100.00,WNW,287,0.0,0.0,98,0.01,,,0.02,0.0,meteohub,2013-06-26 08:24:00,
2013-06-26 01:30:00,60.6,60.1,-100.00,WNW,287,0.0,0.0,98,0.01,,,0.03,0.0,meteohub,2013-06-26 08:30:00,
2013-06-26 01:37:00,60.6,60.1,-100.00,WNW,287,0.0,0.0,98,0.02,,,0.03,0.0,meteohub,2013-06-26 08:37:00,
2013-06-26 01:42:00,60.6,60.1,-100.00,WNW,287,0.0,0.0,98,0.02,,,0.03,0.0,meteohub,2013-06-26 08:42:00,
2013-06-26 01:47:00,60.6,60.1,-100.00,WNW,287,0.0,0.0,98,0.02,,,0.03,0.0,meteohub,2013-06-26 08:47:00,
2013-06-26 01:52:00,60.6,60.1,-100.00,WNW,287,0.0,0.0,98,0.02,,,0.03,0.0,meteohub,2013-06-26 08:52:00,
2013-06-26 01:57:00,60.4,59.9,-100.00,WNW,287,0.0,0.0,98,0.01,,,0.03,0.0,meteohub,2013-06-26 08:57:00,
2013-06-26 02:02:00,60.3,59.7,-100.00,WNW,287,0.0,0.0,98,0.01,,,0.03,0.0,meteohub,2013-06-26 09:02:00,
2013-06-26 02:07:00,60.3,59.7,-100.00,WNW,287,0.0,0.0,98,0.01,,,0.03,0.0,meteohub,2013-06-26 09:07:00,
2013-06-26 02:12:00,60.3,59.7,-100.00,WNW,287,0.0,0.0,98,0.01,,,0.03,0.0,meteohub,2013-06-26 09:12:00,
2013-06-26 02:18:00,60.3,59.7,-100.00,WNW,287,0.0,0.0,98,0.01,,,0.04,0.0,meteohub,2013-06-26 09:18:00,
2013-06-26 02:25:00,60.3,59.7,-100.00,WNW,287,0.0,0.0,98,0.02,,,0.04,0.0,meteohub,2013-06-26 09:25:00,
2013-06-26 02:31:00,60.3,59.7,-100.00,WNW,287,0.0,0.0,98,0.02,,,0.04,0.0,meteohub,2013-06-26 09:31:00,
2013-06-26 02:37:00,60.3,59.7,-100.00,WNW,287,0.0,0.0,98,0.02,,,0.04,0.0,meteohub,2013-06-26 09:37:00,
2013-06-26 02:42:00,60.4,59.9,-100.00,WNW,287,0.0,0.0,98,0.02,,,0.04,0.0,meteohub,2013-06-26 09:42:00,
2013-06-26 02:47:00,60.4,59.9,-100.00,WNW,287,0.0,0.0,98,0.02,,,0.04,0.0,meteohub,2013-06-26 09:47:00,
2013-06-26 02:52:00,60.4,59.9,-100.00,WNW,287,0.0,0.0,98,0.02,,,0.04,0.0,meteohub,2013-06-26 09:52:00,
2013-06-26 02:57:00,60.4,59.9,-100.00,WNW,287,0.0,0.0,98,0.02,,,0.05,0.0,meteohub,2013-06-26 09:57:00,
2013-06-26 03:02:00,60.4,59.9,-100.00,WNW,287,0.0,0.0,98,0.01,,,0.05,0.0,meteohub,2013-06-26 10:02:00,
2013-06-26 03:07:00,60.4,59.9,-100.00,WNW,287,0.0,0.0,98,0.01,,,0.05,0.0,meteohub,2013-06-26 10:07:00,
2013-06-26 03:13:00,60.4,59.9,-100.00,WNW,287,0.0,0.0,98,0.01,,,0.05,0.0,meteohub,2013-06-26 10:13:00,
2013-06-26 03:19:00,60.4,59.9,-100.00,WNW,287,0.0,0.0,98,0.01,,,0.05,0.0,meteohub,2013-06-26 10:19:00,
2013-06-26 03:26:00,60.4,59.9,-100.00,WNW,287,0.0,0.0,98,0.01,,,0.05,0.0,meteohub,2013-06-26 10:26:00,
2013-06-26 03:32:00,60.4,59.9,-100.00,WNW,287,0.0,0.0,98,0.02,,,0.05,0.0,meteohub,2013-06-26 10:32:00,
2013-06-26 03:37:00,60.4,59.9,-100.00,WNW,287,0.0,0.0,98,0.02,,,0.05,0.0,meteohub,2013-06-26 10:37:00,
2013-06-26 03:42:00,60.4,59.9,-100.00,WNW,287,0.0,0.0,98,0.02,,,0.05,0.0,meteohub,2013-06-26 10:42:00,
2013-06-26 03:47:00,60.4,59.9,-100.00,WNW,287,0.0,0.0,98,0.02,,,0.05,0.0,meteohub,2013-06-26 10:47:00,
2013-06-26 03:53:00,60.4,59.9,-100.00,WNW,287,0.0,0.0,98,0.02,,,0.06,0.0,meteohub,2013-06-26 10:53:00,
2013-06-26 03:59:00,60.4,59.9,-100.00,WNW,287,0.0,0.0,98,0.01,,,0.06,0.0,meteohub,2013-06-26 10:59:00,
2013-06-26 04:05:00,60.4,59.9,-100.00,WNW,287,0.0,0.0,98,0.01,,,0.06,0.0,meteohub,2013-06-26 11:05:00,
2013-06-26 04:12:00,60.4,59.9,-100.00,WNW,287,0.0,0.0,98,0.01,,,0.06,0.0,meteohub,2013-06-26 11:12:00,
2013-06-26 04:17:00,60.4,59.9,-100.00,WNW,287,0.0,0.0,98,0.01,,,0.07,0.0,meteohub,2013-06-26 11:17:00,
2013-06-26 04:22:00,60.4,59.9,-100.00,WNW,287,0.0,0.0,98,0.02,,,0.07,0.0,meteohub,2013-06-26 11:22:00,
2013-06-26 04:27:00,60.4,59.9,-100.00,WNW,287,0.0,0.0,98,0.02,,,0.07,0.0,meteohub,2013-06-26 11:27:00,
2013-06-26 04:33:00,60.4,59.9,-100.00,WNW,287,0.0,0.0,98,0.02,,,0.07,0.0,meteohub,2013-06-26 11:33:00,
2013-06-26 04:39:00,60.4,59.9,-100.00,WNW,287,0.0,0.0,98,0.01,,,0.07,0.0,meteohub,2013-06-26 11:39:00,
2013-06-26 04:45:00,60.6,60.1,-100.00,WNW,287,0.0,0.0,98,0.01,,,0.07,0.0,meteohub,2013-06-26 11:45:00,
2013-06-26 04:51:00,60.6,60.1,-100.00,WNW,287,0.0,0.0,98,0.01,,,0.07,0.0,meteohub,2013-06-26 11:51:00,
2013-06-26 04:57:00,60.6,60.1,-100.00,WNW,287,0.0,0.0,98,0.01,,,0.08,0.0,meteohub,2013-06-26 11:57:00,
2013-06-26 05:02:00,60.6,60.1,-100.00,WNW,287,0.0,0.0,98,0.01,,,0.08,0.0,meteohub,2013-06-26 12:02:00,
2013-06-26 05:07:00,60.6,60.1,-100.00,WNW,287,0.0,0.0,98,0.02,,,0.08,0.0,meteohub,2013-06-26 12:07:00,
2013-06-26 05:12:00,60.6,60.1,-100.00,WNW,287,0.0,0.0,98,0.02,,,0.08,0.0,meteohub,2013-06-26 12:12:00,
2013-06-26 05:17:00,60.6,60.1,-100.00,WNW,287,0.0,0.0,98,0.02,,,0.08,0.0,meteohub,2013-06-26 12:17:00,
2013-06-26 05:23:00,60.6,60.1,-100.00,WNW,287,0.0,0.0,98,0.02,,,0.08,0.0,meteohub,2013-06-26 12:23:00,
2013-06-26 05:29:00,60.8,60.3,-100.00,WNW,287,0.0,0.0,98,0.02,,,0.08,0.0,meteohub,2013-06-26 12:29:00,
2013-06-26 05:36:00,60.6,60.1,-100.00,WNW,287,0.0,0.0,98,0.02,,,0.08,0.0,meteohub,2013-06-26 12:36:00,
2013-06-26 05:42:00,60.6,60.1,-100.00,WNW,287,0.0,0.0,98,0.02,,,0.08,0.0,meteohub,2013-06-26 12:42:00,
2013-06-26 05:47:00,60.4,59.9,-100.00,WNW,287,0.0,0.0,98,0.02,,,0.08,0.0,meteohub,2013-06-26 12:47:00,
2013-06-26 05:52:00,60.4,59.9,-100.00,WNW,287,0.0,0.0,98,0.02,,,0.08,0.0,meteohub,2013-06-26 12:52:00,
2013-06-26 05:57:00,60.4,59.9,-100.00,WNW,287,0.0,0.0,98,0.02,,,0.08,0.0,meteohub,2013-06-26 12:57:00,
2013-06-26 06:02:00,60.4,59.9,-100.00,WNW,287,0.0,0.0,98,0.02,,,0.08,0.0,meteohub,2013-06-26 13:02:00,
2013-06-26 06:07:00,60.4,59.9,-100.00,WNW,287,0.0,0.0,98,0.02,,,0.09,7.0,meteohub,2013-06-26 13:07:00,
2013-06-26 06:12:00,60.4,59.9,-100.00,WNW,287,0.0,0.0,98,0.02,,,0.09,12.0,meteohub,2013-06-26 13:12:00,
2013-06-26 06:17:00,60.4,59.9,-100.00,WNW,287,0.0,0.0,98,0.02,,,0.09,14.0,meteohub,2013-06-26 13:17:00,
2013-06-26 06:22:00,60.4,59.9,-100.00,WNW,287,0.0,0.0,98,0.02,,,0.09,9.0,meteohub,2013-06-26 13:22:00,
2013-06-26 06:27:00,60.4,59.9,-100.00,WNW,287,0.0,0.0,98,0.02,,,0.09,9.0,meteohub,2013-06-26 13:27:00,
2013-06-26 06:32:00,60.4,59.9,-100.00,WNW,287,0.0,0.0,98,0.02,,,0.09,23.0,meteohub,2013-06-26 13:32:00,
2013-06-26 06:37:00,60.4,59.9,-100.00,WNW,287,0.0,0.0,98,0.02,,,0.09,16.0,meteohub,2013-06-26 13:37:00,
2013-06-26 06:44:00,60.4,59.9,-100.00,WNW,287,0.0,0.0,98,0.02,,,0.09,23.0,meteohub,2013-06-26 13:44:00,
2013-06-26 06:50:00,60.6,60.1,-100.00,WNW,287,0.0,0.0,98,0.02,,,0.09,33.0,meteohub,2013-06-26 13:50:00,
2013-06-26 06:56:00,61.0,60.4,-100.00,WNW,287,0.0,0.0,98,0.02,,,0.10,37.0,meteohub,2013-06-26 13:56:00,
2013-06-26 07:02:00,61.0,60.4,-100.00,WNW,287,0.0,0.0,98,0.02,,,0.10,44.0,meteohub,2013-06-26 14:02:00,
2013-06-26 07:07:00,61.2,60.6,-100.00,WNW,287,0.0,0.0,98,0.02,,,0.10,49.0,meteohub,2013-06-26 14:07:00,
2013-06-26 07:12:00,61.2,60.6,-100.00,WNW,287,0.0,0.0,98,0.02,,,0.10,51.0,meteohub,2013-06-26 14:12:00,
2013-06-26 07:17:00,61.3,60.8,-100.00,WNW,287,0.0,0.0,98,0.01,,,0.10,56.0,meteohub,2013-06-26 14:17:00,
2013-06-26 07:23:00,61.3,60.8,-100.00,WNW,287,0.0,0.0,98,0.01,,,0.10,63.0,meteohub,2013-06-26 14:23:00,
2013-06-26 07:30:00,61.3,60.8,-100.00,WNW,287,0.0,0.0,98,0.01,,,0.11,76.0,meteohub,2013-06-26 14:30:00,
2013-06-26 07:36:00,61.5,61.0,-100.00,WNW,287,0.0,0.0,98,0.01,,,0.11,83.0,meteohub,2013-06-26 14:36:00,
2013-06-26 07:42:00,61.7,61.2,-100.00,WNW,287,0.0,0.0,98,0.01,,,0.11,81.0,meteohub,2013-06-26 14:42:00,
2013-06-26 07:48:00,62.1,61.5,-100.00,WNW,287,0.0,0.0,98,0.01,,,0.11,72.0,meteohub,2013-06-26 14:48:00,
2013-06-26 07:54:00,62.1,61.5,-100.00,WNW,287,0.0,0.0,98,0.01,,,0.11,69.0,meteohub,2013-06-26 14:54:00,
2013-06-26 08:01:00,62.1,61.5,-100.00,WNW,287,0.0,0.0,98,0.01,,,0.11,83.0,meteohub,2013-06-26 15:01:00,
2013-06-26 08:07:00,62.1,61.5,-100.00,WNW,287,0.0,0.0,98,0.01,,,0.11,90.0,meteohub,2013-06-26 15:07:00,
2013-06-26 08:12:00,62.2,61.7,-100.00,WNW,287,0.0,0.0,98,0.01,,,0.11,107.0,meteohub,2013-06-26 15:12:00,
2013-06-26 08:17:00,62.2,61.7,-100.00,WNW,287,0.0,0.0,98,0.01,,,0.11,98.0,meteohub,2013-06-26 15:17:00,
2013-06-26 08:22:00,62.2,61.7,-100.00,WNW,287,0.0,0.0,98,0.01,,,0.11,116.0,meteohub,2013-06-26 15:22:00,
2013-06-26 08:27:00,62.4,61.9,-100.00,WNW,287,0.0,0.0,98,0.01,,,0.11,116.0,meteohub,2013-06-26 15:27:00,
2013-06-26 08:32:00,62.6,62.1,-100.00,WNW,287,0.0,0.0,98,0.01,,,0.12,113.0,meteohub,2013-06-26 15:32:00,
2013-06-26 08:37:00,62.4,61.9,-100.00,WNW,287,0.0,0.0,98,0.01,,,0.12,113.0,meteohub,2013-06-26 15:37:00,
2013-06-26 08:42:00,62.6,62.1,-100.00,WNW,287,1.0,0.0,98,0.01,,,0.12,97.0,meteohub,2013-06-26 15:42:00,
2013-06-26 08:47:00,62.6,62.1,-100.00,WNW,287,0.0,0.0,98,0.01,,,0.12,130.0,meteohub,2013-06-26 15:47:00,
2013-06-26 08:52:00,62.6,62.1,-100.00,WNW,287,0.0,0.0,98,0.01,,,0.12,107.0,meteohub,2013-06-26 15:52:00,
2013-06-26 08:57:00,62.8,62.2,-100.00,WNW,287,0.0,0.0,98,0.01,,,0.12,118.0,meteohub,2013-06-26 15:57:00,
2013-06-26 09:02:00,62.8,62.2,-100.00,WNW,287,0.0,3.0,98,0.01,,,0.12,105.0,meteohub,2013-06-26 16:02:00,
2013-06-26 09:07:00,62.8,62.2,-100.00,WNW,287,0.0,3.0,98,0.01,,,0.12,120.0,meteohub,2013-06-26 16:07:00,
2013-06-26 09:12:00,62.8,62.2,-100.00,WNW,287,0.0,3.0,98,0.01,,,0.12,123.0,meteohub,2013-06-26 16:12:00,
2013-06-26 09:17:00,63.0,62.4,-100.00,WNW,287,0.0,3.0,98,0.01,,,0.12,197.0,meteohub,2013-06-26 16:17:00,
2013-06-26 09:22:00,63.0,62.4,-100.00,WNW,287,0.0,2.0,98,0.01,,,0.12,181.0,meteohub,2013-06-26 16:22:00,
2013-06-26 09:27:00,63.0,62.4,-100.00,WNW,287,0.0,2.0,98,0.01,,,0.12,169.0,meteohub,2013-06-26 16:27:00,
2013-06-26 09:32:00,63.1,62.6,-100.00,WNW,287,1.0,2.0,98,0.01,,,0.13,174.0,meteohub,2013-06-26 16:32:00,
2013-06-26 09:37:00,63.3,62.8,-100.00,WNW,287,0.0,2.0,98,0.01,,,0.13,186.0,meteohub,2013-06-26 16:37:00,
2013-06-26 09:42:00,63.3,62.8,-100.00,WNW,287,0.0,1.0,98,0.01,,,0.13,213.0,meteohub,2013-06-26 16:42:00,
2013-06-26 09:47:00,63.7,63.1,-100.00,WNW,287,0.0,1.0,98,0.01,,,0.13,237.0,meteohub,2013-06-26 16:47:00,
2013-06-26 09:52:00,63.7,63.1,-100.00,WNW,287,0.0,1.0,98,0.01,,,0.13,323.0,meteohub,2013-06-26 16:52:00,
2013-06-26 09:57:00,63.9,63.3,-100.00,WNW,287,0.0,1.0,98,0.01,,,0.13,332.0,meteohub,2013-06-26 16:57:00,
2013-06-26 10:02:00,64.0,63.5,-100.00,WNW,287,0.0,1.0,98,0.01,,,0.13,359.0,meteohub,2013-06-26 17:02:00,
2013-06-26 10:07:00,64.0,63.5,-100.00,WNW,287,0.0,1.0,98,0.01,,,0.13,276.0,meteohub,2013-06-26 17:07:00,
2013-06-26 10:12:00,63.9,63.3,-100.00,WNW,287,0.0,1.0,98,0.01,,,0.14,251.0,meteohub,2013-06-26 17:12:00,
2013-06-26 10:17:00,64.0,63.5,-100.00,WNW,287,0.0,1.0,98,0.01,,,0.14,318.0,meteohub,2013-06-26 17:17:00,
2013-06-26 10:23:00,64.4,63.9,-100.00,WNW,287,0.0,1.0,98,0.01,,,0.14,308.0,meteohub,2013-06-26 17:23:00,
2013-06-26 10:29:00,64.8,64.2,-100.00,WNW,287,0.0,1.0,98,0.01,,,0.14,357.0,meteohub,2013-06-26 17:29:00,
2013-06-26 10:35:00,64.9,64.4,-100.00,WNW,287,1.0,1.0,98,0.01,,,0.14,413.0,meteohub,2013-06-26 17:35:00,
2013-06-26 10:41:00,65.1,64.6,-100.00,WNW,286,0.0,3.0,98,0.01,,,0.14,425.0,meteohub,2013-06-26 17:41:00,
2013-06-26 10:47:00,65.5,64.9,-100.00,WNW,286,0.0,3.0,98,0.01,,,0.14,554.0,meteohub,2013-06-26 17:47:00,
2013-06-26 10:52:00,65.8,65.3,-100.00,WNW,286,0.0,3.0,98,0.01,,,0.14,686.0,meteohub,2013-06-26 17:52:00,
2013-06-26 10:57:00,66.0,65.5,-100.00,WNW,286,0.0,3.0,98,0.01,,,0.14,548.0,meteohub,2013-06-26 17:57:00,
2013-06-26 11:02:00,66.6,66.0,-100.00,WNW,286,0.0,2.0,98,0.01,,,0.14,700.0,meteohub,2013-06-26 18:02:00,
2013-06-26 11:07:00,66.7,66.2,-100.00,WNW,283,2.0,2.0,98,0.01,,,0.14,587.0,meteohub,2013-06-26 18:07:00,
2013-06-26 11:12:00,66.2,65.3,-100.00,SSW,209,2.0,2.0,97,0.01,,,0.15,613.0,meteohub,2013-06-26 18:12:00,
2013-06-26 11:17:00,66.4,65.1,-100.00,SW,233,2.0,2.0,96,0.01,,,0.15,526.0,meteohub,2013-06-26 18:17:00,
2013-06-26 11:22:00,66.6,65.3,-100.00,SSW,209,0.0,6.0,96,0.01,,,0.15,615.0,meteohub,2013-06-26 18:22:00,
2013-06-26 11:27:00,67.1,65.8,-100.00,SSW,207,0.0,6.0,96,0.01,,,0.15,476.0,meteohub,2013-06-26 18:27:00,
2013-06-26 11:32:00,67.5,66.0,-100.00,SSW,204,3.0,6.0,95,0.01,,,0.15,392.0,meteohub,2013-06-26 18:32:00,
2013-06-26 11:37:00,67.5,65.7,-100.00,SSW,203,2.0,6.0,94,0.01,,,0.15,427.0,meteohub,2013-06-26 18:37:00,
2013-06-26 11:42:00,67.6,65.8,-100.00,SSW,206,2.0,5.0,94,0.02,,,0.15,487.0,meteohub,2013-06-26 18:42:00,
2013-06-26 11:47:00,67.8,65.7,-100.00,SSW,207,0.0,5.0,93,0.02,,,0.15,506.0,meteohub,2013-06-26 18:47:00,
2013-06-26 11:52:00,68.2,65.8,-100.00,SSW,207,4.0,5.0,92,0.02,,,0.16,345.0,meteohub,2013-06-26 18:52:00,
2013-06-26 11:57:00,68.4,65.3,-100.00,SSW,213,0.0,5.0,90,0.02,,,0.16,425.0,meteohub,2013-06-26 18:57:00,
2013-06-26 12:02:00,68.4,65.3,-100.00,SW,222,1.0,4.0,90,0.02,,,0.16,1136.0,meteohub,2013-06-26 19:02:00,
2013-06-26 12:07:00,68.7,65.7,-100.00,SW,227,7.0,7.0,90,0.02,,,0.16,724.0,meteohub,2013-06-26 19:07:00,
2013-06-26 12:12:00,69.1,66.0,-100.00,South,188,3.0,4.0,90,0.02,,,0.16,1187.0,meteohub,2013-06-26 19:12:00,
2013-06-26 12:17:00,69.3,65.5,-100.00,SW,220,1.0,4.0,88,0.02,,,0.17,1123.0,meteohub,2013-06-26 19:17:00,
2013-06-26 12:22:00,69.6,66.2,-100.00,SW,215,2.0,9.0,89,0.02,,,0.17,1111.0,meteohub,2013-06-26 19:22:00,
2013-06-26 12:28:00,70.0,65.7,-100.00,WSW,245,4.0,9.0,86,0.02,,,0.17,798.0,meteohub,2013-06-26 19:28:00,
2013-06-26 12:35:00,70.5,66.4,-100.00,SSW,200,5.0,9.0,87,0.01,,,0.17,1157.0,meteohub,2013-06-26 19:35:00,
2013-06-26 12:41:00,70.9,66.6,-100.00,South,190,1.0,9.0,86,0.01,,,0.17,1179.0,meteohub,2013-06-26 19:41:00,
2013-06-26 12:47:00,71.1,66.4,-100.00,South,181,0.0,9.0,85,0.01,,,0.17,682.0,meteohub,2013-06-26 19:47:00,
2013-06-26 12:52:00,71.1,65.7,-100.00,SW,221,0.0,8.0,83,0.02,,,0.18,1095.0,meteohub,2013-06-26 19:52:00,
2013-06-26 12:57:00,71.8,66.0,-100.00,West,270,1.0,8.0,82,0.02,,,0.18,969.0,meteohub,2013-06-26 19:57:00,
2013-06-26 13:02:00,72.3,66.2,-100.00,WSW,250,6.0,8.0,81,0.02,,,0.19,1044.0,meteohub,2013-06-26 20:02:00,
2013-06-26 13:07:00,72.1,66.0,-100.00,South,171,4.0,8.0,81,0.02,,,0.19,640.0,meteohub,2013-06-26 20:07:00,
2013-06-26 13:12:00,72.1,65.7,-100.00,SSW,201,1.0,9.0,80,0.02,,,0.19,1100.0,meteohub,2013-06-26 20:12:00,
2013-06-26 13:17:00,72.3,65.8,-100.00,SSW,204,7.0,9.0,80,0.02,,,0.19,983.0,meteohub,2013-06-26 20:17:00,
2013-06-26 13:22:00,72.3,65.8,-100.00,SW,234,6.0,9.0,80,0.02,,,0.19,988.0,meteohub,2013-06-26 20:22:00,
2013-06-26 13:27:00,72.1,65.3,-100.00,SSW,212,3.0,9.0,79,0.02,,,0.20,986.0,meteohub,2013-06-26 20:27:00,
2013-06-26 13:32:00,72.3,65.5,-100.00,SW,225,3.0,11.0,79,0.03,,,0.20,953.0,meteohub,2013-06-26 20:32:00,
2013-06-26 13:37:00,72.7,65.5,-100.00,SW,234,0.0,11.0,78,0.03,,,0.20,951.0,meteohub,2013-06-26 20:37:00,
2013-06-26 13:42:00,72.7,65.1,-100.00,SSW,197,7.0,11.0,77,0.02,,,0.20,893.0,meteohub,2013-06-26 20:42:00,
2013-06-26 13:47:00,72.7,65.8,-100.00,SW,234,6.0,11.0,79,0.02,,,0.20,944.0,meteohub,2013-06-26 20:47:00,
2013-06-26 13:52:00,73.0,65.8,-100.00,South,182,4.0,10.0,78,0.03,,,0.20,937.0,meteohub,2013-06-26 20:52:00,
2013-06-26 13:57:00,72.9,65.3,-100.00,SW,230,9.0,10.0,77,0.03,,,0.21,937.0,meteohub,2013-06-26 20:57:00,
2013-06-26 14:02:00,72.7,65.1,-100.00,South,189,1.0,9.0,77,0.03,,,0.21,926.0,meteohub,2013-06-26 21:02:00,
2013-06-26 14:07:00,72.7,65.5,-100.00,SSW,202,3.0,9.0,78,0.03,,,0.21,925.0,meteohub,2013-06-26 21:07:00,
2013-06-26 14:12:00,73.0,65.5,-100.00,WSW,239,8.0,11.0,77,0.02,,,0.21,912.0,meteohub,2013-06-26 21:12:00,
2013-06-26 14:17:00,73.2,65.1,-100.00,WSW,238,4.0,11.0,76,0.02,,,0.21,911.0,meteohub,2013-06-26 21:17:00,
2013-06-26 14:22:00,73.4,65.7,-100.00,WSW,245,5.0,11.0,77,0.02,,,0.22,907.0,meteohub,2013-06-26 21:22:00,
2013-06-26 14:27:00,73.0,65.5,-100.00,SW,215,0.0,11.0,77,0.02,,,0.22,904.0,meteohub,2013-06-26 21:27:00,
2013-06-26 14:32:00,73.6,65.8,-100.00,WSW,243,7.0,11.0,77,0.02,,,0.22,898.0,meteohub,2013-06-26 21:32:00,
2013-06-26 14:37:00,73.6,65.1,-100.00,SW,225,6.0,11.0,75,0.02,,,0.22,893.0,meteohub,2013-06-26 21:37:00,
2013-06-26 14:42:00,74.1,66.0,-100.00,ESE,117,0.0,9.0,76,0.03,,,0.22,886.0,meteohub,2013-06-26 21:42:00,
2013-06-26 14:48:00,74.7,65.8,-100.00,SW,221,3.0,9.0,74,0.02,,,0.23,881.0,meteohub,2013-06-26 21:48:00,
2013-06-26 14:54:00,74.8,65.7,-100.00,SSW,209,4.0,9.0,73,0.02,,,0.23,870.0,meteohub,2013-06-26 21:54:00,
2013-06-26 15:00:00,75.0,65.8,-100.00,West,260,7.0,10.0,73,0.02,,,0.23,863.0,meteohub,2013-06-26 22:00:00,
2013-06-26 15:06:00,75.6,65.5,-100.00,ESE,120,1.0,10.0,71,0.02,,,0.23,854.0,meteohub,2013-06-26 22:06:00,
2013-06-26 15:12:00,76.1,65.7,-100.00,SW,231,2.0,10.0,70,0.02,,,0.24,846.0,meteohub,2013-06-26 22:12:00,
2013-06-26 15:17:00,76.3,66.2,-100.00,SW,235,5.0,10.0,71,0.02,,,0.24,837.0,meteohub,2013-06-26 22:17:00,
2013-06-26 15:22:00,75.9,64.9,-100.00,SSW,208,1.0,8.0,69,0.02,,,0.24,826.0,meteohub,2013-06-26 22:22:00,
2013-06-26 15:27:00,76.3,65.3,-100.00,SSW,194,5.0,8.0,69,0.02,,,0.24,817.0,meteohub,2013-06-26 22:27:00,
2013-06-26 15:32:00,76.3,64.9,-100.00,WSW,245,5.0,11.0,68,0.03,,,0.24,812.0,meteohub,2013-06-26 22:32:00,
2013-06-26 15:37:00,76.5,64.8,-100.00,WSW,246,6.0,11.0,67,0.03,,,0.25,800.0,meteohub,2013-06-26 22:37:00,
2013-06-26 15:42:00,76.5,64.2,-100.00,SW,215,2.0,11.0,66,0.02,,,0.25,789.0,meteohub,2013-06-26 22:42:00,
2013-06-26 15:47:00,75.9,63.7,-100.00,WSW,250,6.0,11.0,66,0.02,,,0.25,780.0,meteohub,2013-06-26 22:47:00,
2013-06-26 15:52:00,75.9,63.7,-100.00,SW,235,2.0,11.0,66,0.02,,,0.25,770.0,meteohub,2013-06-26 22:52:00,
2013-06-26 15:58:00,76.3,64.0,-100.00,SW,225,1.0,11.0,66,0.03,,,0.26,758.0,meteohub,2013-06-26 22:58:00,
2013-06-26 16:04:00,76.3,64.0,-100.00,WSW,250,0.0,11.0,66,0.03,,,0.26,744.0,meteohub,2013-06-26 23:04:00,
2013-06-26 16:10:00,76.5,63.9,-100.00,SW,232,7.0,11.0,65,0.02,,,0.26,728.0,meteohub,2013-06-26 23:10:00,
2013-06-26 16:16:00,75.9,62.8,-100.00,WSW,243,6.0,9.0,64,0.02,,,0.26,712.0,meteohub,2013-06-26 23:16:00,
2013-06-26 16:22:00,76.1,63.5,-100.00,SE,139,6.0,9.0,65,0.02,,,0.27,698.0,meteohub,2013-06-26 23:22:00,
2013-06-26 16:27:00,75.9,62.4,-100.00,SW,227,8.0,9.0,63,0.02,,,0.27,686.0,meteohub,2013-06-26 23:27:00,
2013-06-26 16:33:00,75.9,63.7,-100.00,West,260,7.0,10.0,66,0.02,,,0.27,671.0,meteohub,2013-06-26 23:33:00,
2013-06-26 16:39:00,76.5,64.8,-100.00,WSW,246,4.0,10.0,67,0.02,,,0.27,656.0,meteohub,2013-06-26 23:39:00,
2013-06-26 16:45:00,76.5,64.2,-100.00,SW,236,5.0,10.0,66,0.02,,,0.27,640.0,meteohub,2013-06-26 23:45:00,
2013-06-26 16:51:00,76.8,64.6,-100.00,SSW,197,5.0,8.0,66,0.03,,,0.28,624.0,meteohub,2013-06-26 23:51:00,
2013-06-26 16:57:00,76.6,64.9,-100.00,SSE,167,0.0,8.0,67,0.02,,,0.28,605.0,meteohub,2013-06-26 23:57:00,
2013-06-26 17:02:00,77.2,64.9,-100.00,SSW,202,3.0,8.0,66,0.02,,,0.28,594.0,meteohub,2013-06-27 00:02:00,
2013-06-26 17:07:00,76.6,64.0,-100.00,WSW,237,1.0,8.0,65,0.02,,,0.28,582.0,meteohub,2013-06-27 00:07:00,
2013-06-26 17:12:00,77.2,64.0,-100.00,SSW,197,5.0,10.0,64,0.02,,,0.28,564.0,meteohub,2013-06-27 00:12:00,
2013-06-26 17:18:00,77.5,64.4,-100.00,SSW,206,5.0,10.0,64,0.02,,,0.29,547.0,meteohub,2013-06-27 00:18:00,
2013-06-26 17:24:00,77.5,64.8,-100.00,SW,219,2.0,10.0,65,0.02,,,0.29,527.0,meteohub,2013-06-27 00:24:00,
2013-06-26 17:30:00,77.5,64.8,-100.00,SSW,213,0.0,6.0,65,0.02,,,0.29,512.0,meteohub,2013-06-27 00:30:00,
2013-06-26 17:36:00,77.7,64.9,-100.00,SW,225,2.0,6.0,65,0.02,,,0.29,494.0,meteohub,2013-06-27 00:36:00,
2013-06-26 17:42:00,77.2,64.9,-100.00,WSW,244,1.0,7.0,66,0.02,,,0.29,478.0,meteohub,2013-06-27 00:42:00,
2013-06-26 17:47:00,77.0,64.8,-100.00,SSW,213,2.0,7.0,66,0.02,,,0.30,462.0,meteohub,2013-06-27 00:47:00,
2013-06-26 17:52:00,76.6,64.9,-100.00,SW,225,0.0,6.0,67,0.02,,,0.30,448.0,meteohub,2013-06-27 00:52:00,
2013-06-26 17:57:00,76.8,64.6,-100.00,SW,220,2.0,6.0,66,0.02,,,0.30,432.0,meteohub,2013-06-27 00:57:00,
2013-06-26 18:02:00,76.5,65.1,-100.00,WSW,255,2.0,7.0,68,0.02,,,0.30,415.0,meteohub,2013-06-27 01:02:00,
2013-06-26 18:07:00,75.9,64.9,-100.00,WSW,254,1.0,7.0,69,0.02,,,0.30,399.0,meteohub,2013-06-27 01:07:00,
2013-06-26 18:12:00,75.7,65.3,-100.00,SW,217,1.0,5.0,70,0.02,,,0.30,383.0,meteohub,2013-06-27 01:12:00,
2013-06-26 18:17:00,75.4,65.7,-100.00,SW,219,0.0,5.0,72,0.02,,,0.30,369.0,meteohub,2013-06-27 01:17:00,
2013-06-26 18:22:00,75.0,65.3,-100.00,SW,220,1.0,5.0,72,0.02,,,0.31,353.0,meteohub,2013-06-27 01:22:00,
2013-06-26 18:27:00,74.7,65.1,-100.00,SW,222,0.0,5.0,72,0.02,,,0.31,338.0,meteohub,2013-06-27 01:27:00,
2013-06-26 18:32:00,73.8,64.9,-100.00,SW,234,2.0,5.0,74,0.02,,,0.31,47.0,meteohub,2013-06-27 01:32:00,
2013-06-26 18:37:00,72.7,65.1,-100.00,WSW,241,1.0,5.0,77,0.02,,,0.31,42.0,meteohub,2013-06-27 01:37:00,
2013-06-26 18:42:00,71.8,64.2,-100.00,WSW,241,0.0,5.0,77,0.02,,,0.31,28.0,meteohub,2013-06-27 01:42:00,
2013-06-26 18:47:00,71.1,64.2,-100.00,WNW,284,1.0,5.0,79,0.02,,,0.31,26.0,meteohub,2013-06-27 01:47:00,
2013-06-26 18:52:00,70.5,63.7,-100.00,WSW,254,5.0,5.0,79,0.01,,,0.31,25.0,meteohub,2013-06-27 01:52:00,
2013-06-26 18:57:00,70.3,63.5,-100.00,West,274,1.0,5.0,79,0.01,,,0.32,23.0,meteohub,2013-06-27 01:57:00,
2013-06-26 19:02:00,70.3,63.9,-100.00,West,273,0.0,8.0,80,0.02,,,0.32,21.0,meteohub,2013-06-27 02:02:00,
2013-06-26 19:07:00,70.2,64.0,-100.00,West,273,1.0,8.0,81,0.02,,,0.32,19.0,meteohub,2013-06-27 02:07:00,
2013-06-26 19:12:00,70.0,63.5,-100.00,West,274,0.0,5.0,80,0.02,,,0.32,19.0,meteohub,2013-06-27 02:12:00,
2013-06-26 19:17:00,69.6,63.1,-100.00,West,265,2.0,5.0,80,0.02,,,0.32,19.0,meteohub,2013-06-27 02:17:00,
2013-06-26 19:22:00,69.4,63.0,-100.00,West,266,1.0,5.0,80,0.01,,,0.32,19.0,meteohub,2013-06-27 02:22:00,
2013-06-26 19:27:00,69.3,63.5,-100.00,West,266,0.0,5.0,82,0.01,,,0.33,18.0,meteohub,2013-06-27 02:27:00,
2013-06-26 19:32:00,69.1,63.3,-100.00,WNW,286,0.0,5.0,82,0.02,,,0.33,18.0,meteohub,2013-06-27 02:32:00,
2013-06-26 19:37:00,68.9,63.1,-100.00,WNW,290,0.0,5.0,82,0.02,,,0.33,16.0,meteohub,2013-06-27 02:37:00,
2013-06-26 19:42:00,68.5,62.4,-100.00,WNW,285,1.0,5.0,81,0.02,,,0.33,16.0,meteohub,2013-06-27 02:42:00,
2013-06-26 19:47:00,68.2,62.8,-100.00,WNW,286,0.0,5.0,83,0.02,,,0.33,16.0,meteohub,2013-06-27 02:47:00,
2013-06-26 19:52:00,68.2,63.1,-100.00,WNW,286,0.0,5.0,84,0.01,,,0.33,14.0,meteohub,2013-06-27 02:52:00,
2013-06-26 19:57:00,67.8,62.8,-100.00,WNW,287,0.0,5.0,84,0.01,,,0.33,14.0,meteohub,2013-06-27 02:57:00,
2013-06-26 20:02:00,67.6,62.6,-100.00,WNW,286,0.0,1.0,84,0.01,,,0.33,12.0,meteohub,2013-06-27 03:02:00,
2013-06-26 20:07:00,67.5,62.4,-100.00,WNW,286,0.0,1.0,84,0.01,,,0.33,12.0,meteohub,2013-06-27 03:07:00,
2013-06-26 20:12:00,67.1,62.4,-100.00,WNW,286,0.0,1.0,85,0.02,,,0.34,11.0,meteohub,2013-06-27 03:12:00,
2013-06-26 20:17:00,66.9,62.6,-100.00,WNW,286,0.0,1.0,86,0.02,,,0.34,9.0,meteohub,2013-06-27 03:17:00,
2013-06-26 20:22:00,66.6,62.6,-100.00,WNW,286,0.0,1.0,87,0.02,,,0.34,7.0,meteohub,2013-06-27 03:22:00,
2013-06-26 20:27:00,66.4,62.4,-100.00,WNW,286,0.0,1.0,87,0.01,,,0.34,7.0,meteohub,2013-06-27 03:27:00,
2013-06-26 20:32:00,66.0,62.4,-100.00,WNW,286,0.0,1.0,88,0.01,,,0.34,5.0,meteohub,2013-06-27 03:32:00,
2013-06-26 20:37:00,65.8,62.2,-100.00,WNW,286,0.0,1.0,88,0.01,,,0.34,0.0,meteohub,2013-06-27 03:37:00,
2013-06-26 20:42:00,65.7,62.1,-100.00,WNW,287,0.0,1.0,88,0.01,,,0.34,0.0,meteohub,2013-06-27 03:42:00,
2013-06-26 20:47:00,65.5,61.9,-100.00,WNW,287,0.0,1.0,88,0.01,,,0.34,0.0,meteohub,2013-06-27 03:47:00,
2013-06-26 20:52:00,65.3,62.1,-100.00,WNW,286,0.0,1.0,89,0.02,,,0.34,0.0,meteohub,2013-06-27 03:52:00,
2013-06-26 20:57:00,65.1,61.9,-100.00,WNW,286,0.0,1.0,89,0.02,,,0.35,0.0,meteohub,2013-06-27 03:57:00,
2013-06-26 21:02:00,64.9,61.7,-100.00,WNW,286,0.0,1.0,89,0.02,,,0.35,0.0,meteohub,2013-06-27 04:02:00,
2013-06-26 21:06:00,64.9,61.7,-100.00,WNW,286,0.0,1.0,89,0.02,,,0.35,0.0,meteohub,2013-06-27 04:06:00,
2013-06-26 21:12:00,64.6,61.3,-100.00,WNW,286,0.0,1.0,89,0.01,,,0.35,0.0,meteohub,2013-06-27 04:12:00,
2013-06-26 21:17:00,64.4,61.2,-100.00,WNW,287,0.0,1.0,89,0.01,,,0.35,0.0,meteohub,2013-06-27 04:17:00,
2013-06-26 21:22:00,64.0,61.0,-100.00,WNW,287,0.0,1.0,90,0.01,,,0.35,0.0,meteohub,2013-06-27 04:22:00,
2013-06-26 21:27:00,63.9,60.8,-100.00,WNW,286,0.0,1.0,90,0.01,,,0.35,0.0,meteohub,2013-06-27 04:27:00,
2013-06-26 21:32:00,63.7,60.6,-100.00,WNW,286,0.0,0.0,90,0.01,,,0.35,0.0,meteohub,2013-06-27 04:32:00,
2013-06-26 21:37:00,63.5,60.8,-100.00,WNW,286,0.0,0.0,91,0.01,,,0.36,0.0,meteohub,2013-06-27 04:37:00,
2013-06-26 21:42:00,63.3,60.6,-100.00,WNW,287,0.0,1.0,91,0.02,,,0.36,0.0,meteohub,2013-06-27 04:42:00,
2013-06-26 21:47:00,63.1,60.4,-100.00,WNW,287,0.0,1.0,91,0.02,,,0.36,0.0,meteohub,2013-06-27 04:47:00,
2013-06-26 21:52:00,63.1,60.4,-100.00,WNW,287,0.0,1.0,91,0.01,,,0.36,0.0,meteohub,2013-06-27 04:52:00,
2013-06-26 21:57:00,63.0,60.6,-100.00,WNW,286,0.0,1.0,92,0.01,,,0.36,0.0,meteohub,2013-06-27 04:57:00,
2013-06-26 22:02:00,63.0,60.6,-100.00,WNW,286,0.0,1.0,92,0.01,,,0.36,0.0,meteohub,2013-06-27 05:02:00,
2013-06-26 22:07:00,62.8,60.4,-100.00,WNW,286,0.0,1.0,92,0.01,,,0.36,0.0,meteohub,2013-06-27 05:07:00,
2013-06-26 22:12:00,62.8,60.4,-100.00,WNW,286,0.0,2.0,92,0.01,,,0.36,0.0,meteohub,2013-06-27 05:12:00,
2013-06-26 22:17:00,62.6,60.3,-100.00,WNW,286,0.0,2.0,92,0.01,,,0.36,0.0,meteohub,2013-06-27 05:17:00,
2013-06-26 22:24:00,62.4,60.1,-100.00,WNW,287,0.0,2.0,92,0.01,,,0.36,0.0,meteohub,2013-06-27 05:24:00,
2013-06-26 22:30:00,62.2,59.9,-100.00,WNW,287,0.0,3.0,92,0.02,,,0.36,0.0,meteohub,2013-06-27 05:30:00,
2013-06-26 22:36:00,62.2,59.9,-100.00,WNW,287,0.0,3.0,92,0.02,,,0.37,0.0,meteohub,2013-06-27 05:36:00,
2013-06-26 22:42:00,62.1,59.7,-100.00,WNW,287,0.0,1.0,92,0.01,,,0.37,0.0,meteohub,2013-06-27 05:42:00,
2013-06-26 22:47:00,61.9,59.5,-100.00,WNW,287,0.0,1.0,92,0.01,,,0.37,0.0,meteohub,2013-06-27 05:47:00,
2013-06-26 22:52:00,61.9,59.5,-100.00,WNW,287,0.0,1.0,92,0.01,,,0.37,0.0,meteohub,2013-06-27 05:52:00,
2013-06-26 22:57:00,61.7,59.7,-100.00,WNW,287,0.0,1.0,93,0.01,,,0.37,0.0,meteohub,2013-06-27 05:57:00,
2013-06-26 23:02:00,61.5,59.2,-100.00,WNW,287,0.0,1.0,92,0.01,,,0.37,0.0,meteohub,2013-06-27 06:02:00,
2013-06-26 23:07:00,61.5,59.2,-100.00,WNW,287,0.0,1.0,92,0.01,,,0.37,0.0,meteohub,2013-06-27 06:07:00,
2013-06-26 23:12:00,61.3,59.4,-100.00,WNW,287,0.0,0.0,93,0.01,,,0.37,0.0,meteohub,2013-06-27 06:12:00,
2013-06-26 23:17:00,61.3,59.4,-100.00,WNW,287,0.0,0.0,93,0.01,,,0.37,0.0,meteohub,2013-06-27 06:17:00,
2013-06-26 23:22:00,61.2,59.2,-100.00,WNW,287,0.0,0.0,93,0.01,,,0.37,0.0,meteohub,2013-06-27 06:22:00,
2013-06-26 23:27:00,61.0,59.0,-100.00,WNW,287,0.0,0.0,93,0.01,,,0.38,0.0,meteohub,2013-06-27 06:27:00,
2013-06-26 23:32:00,61.0,59.0,-100.00,WNW,287,0.0,0.0,93,0.01,,,0.38,0.0,meteohub,2013-06-27 06:32:00,
2013-06-26 23:37:00,60.8,58.8,-100.00,WNW,287,0.0,0.0,93,0.01,,,0.38,0.0,meteohub,2013-06-27 06:37:00,
2013-06-26 23:42:00,60.6,58.6,-100.00,WNW,287,0.0,0.0,93,0.01,,,0.38,0.0,meteohub,2013-06-27 06:42:00,
2013-06-26 23:47:00,60.6,58.6,-100.00,WNW,287,0.0,0.0,93,0.01,,,0.38,0.0,meteohub,2013-06-27 06:47:00,
2013-06-26 23:52:00,60.6,58.6,-100.00,WNW,287,0.0,1.0,93,0.01,,,0.38,0.0,meteohub,2013-06-27 06:52:00,
2013-06-26 23:57:00,60.6,58.6,-100.00,WNW,287,0.0,1.0,93,0.01,,,0.38,0.0,meteohub,2013-06-27 06:57:00,